Weather History for Whiteman AFB, MO

Change the Weather History Date:

Monday, December 10, 2012

  Actual Average Record
Temperature  
Mean Temperature 24 °F -  
Max Temperature 31 °F 43 °F 69 °F (1996)
Min Temperature 17 °F 26 °F 10 °F (2013)
Degree Days  
Heating Degree Days 41    
Moisture  
Dew Point 14 °F    
Average Humidity 70    
Maximum Humidity 86    
Minimum Humidity 60    
Precipitation  
Precipitation 0.00 in - - ()
Sea Level Pressure  
Sea Level Pressure 30.07 in    
Wind  
Wind Speed 11 mph (WNW)    
Max Wind Speed 15 mph    
Max Gust Speed 18 mph    
Visibility 10 miles    
Events      
Averages and records for this station are not official NWS values.
T = Trace of Precipitation, MM = Missing Value Source: NWS Daily Summary

Daily Weather History Graph

Daily Weather History Graph

Search for Another Location

Airport:

Trip Planner

Search our weather history database for the weather conditions in past years. The results will help you decide how hot, cold, wet, or windy it might be!

Date:

Astronomy

Dec. 10, 2012 Rise Set
Actual Time 7:21 AM CST 4:52 PM CST
Civil Twilight 6:52 AM CST 5:22 PM CST
Nautical Twilight 6:18 AM CST 5:55 PM CST
Astronomical Twilight 5:46 AM CST 6:28 PM CST
Moon 4:07 AM CST (12/10) 2:41 PM CST (12/10)
Length of Visible Light 10h 30m
Length of Day
9h 30m
Waning Crescent, 10% of the Moon is Illuminated
Dec 10
Waning Crescent
Dec 13
New
Dec 19
First Quarter
Dec 28
Full
Jan 4
Last Quarter

Hourly Weather History & Observations

Time (CST) Temp. Windchill Dew Point Humidity Pressure Visibility Wind Dir Wind Speed Gust Speed Precip Events Conditions
12:55 AM 21.6 °F 8.2 °F 12.2 °F 67% 30.06 in 10.0 mi NW 15.0 mph - N/A   Clear
1:55 AM 20.5 °F 8.6 °F 12.2 °F 70% 30.03 in 10.0 mi WNW 11.5 mph - N/A   Mostly Cloudy
2:55 AM 21.2 °F 7.8 °F 12.2 °F 68% 30.04 in 10.0 mi NW 15.0 mph 18.4 mph N/A   Overcast
3:55 AM 21.2 °F 9.5 °F 12.6 °F 69% 30.03 in 10.0 mi WNW 11.5 mph - N/A   Overcast
4:40 AM 21.2 °F 9.5 °F 12.2 °F 68% 30.05 in 10.0 mi NW 11.5 mph - N/A   Overcast
4:55 AM 21.2 °F 8.9 °F 12.9 °F 70% 30.05 in 10.0 mi WNW 12.7 mph - N/A   Overcast
5:55 AM 20.8 °F 7.3 °F 12.9 °F 71% 30.05 in 10.0 mi NW 15.0 mph - N/A   Overcast
6:43 AM 21.2 °F 8.3 °F 12.2 °F 68% 30.08 in 10.0 mi WNW 13.8 mph - N/A   Overcast
6:55 AM 20.8 °F 8.4 °F 12.9 °F 71% 30.08 in 10.0 mi NW 12.7 mph - N/A   Overcast
7:55 AM 20.8 °F 11.2 °F 12.7 °F 71% 30.10 in 10.0 mi NW 8.1 mph - N/A   Overcast
8:55 AM 21.7 °F 12.3 °F 13.1 °F 69% 30.10 in 10.0 mi WNW 8.1 mph - N/A   Overcast
9:08 AM 21.2 °F 8.9 °F 12.2 °F 68% 30.10 in 10.0 mi WNW 12.7 mph - N/A   Overcast
9:55 AM 23.0 °F 12.4 °F 13.3 °F 66% 30.10 in 10.0 mi NW 10.4 mph - N/A   Overcast
10:55 AM 25.5 °F 18.7 °F 14.9 °F 64% 30.09 in 10.0 mi WNW 5.8 mph - N/A   Overcast
11:55 AM 27.0 °F 17.3 °F 16.5 °F 65% 30.09 in 10.0 mi West 10.4 mph - N/A   Overcast
12:55 PM 28.9 °F 20.4 °F 17.1 °F 61% 30.06 in 10.0 mi NW 9.2 mph - N/A   Overcast
1:55 PM 30.4 °F 22.2 °F 18.1 °F 60% 30.06 in 10.0 mi WNW 9.2 mph - N/A   Mostly Cloudy
2:21 PM 30.2 °F 21.9 °F 17.6 °F 60% 30.05 in 10.0 mi West 9.2 mph - N/A   Scattered Clouds
2:55 PM 31.1 °F 23.1 °F 18.5 °F 60% 30.05 in 10.0 mi WNW 9.2 mph - N/A   Partly Cloudy
3:55 PM 30.6 °F 23.8 °F 18.0 °F 60% 30.06 in 10.0 mi West 6.9 mph - N/A   Clear
4:55 PM 27.5 °F 19.3 °F 17.4 °F 66% 30.06 in 10.0 mi West 8.1 mph - N/A   Clear
5:55 PM 23.9 °F 16.8 °F 16.5 °F 73% 30.06 in 10.0 mi West 5.8 mph - N/A   Clear
6:55 PM 22.3 °F 16.1 °F 15.6 °F 76% 30.06 in 10.0 mi SW 4.6 mph - N/A   Clear
7:55 PM 19.2 °F 12.5 °F 14.5 °F 82% 30.08 in 10.0 mi SSW 4.6 mph - N/A   Clear
8:55 PM 19.0 °F 12.3 °F 14.5 °F 83% 30.09 in 10.0 mi SW 4.6 mph - N/A   Clear
9:55 PM 18.3 °F 10.2 °F 14.4 °F 85% 30.09 in 10.0 mi SSW 5.8 mph - N/A   Clear
10:55 PM 17.8 °F 8.5 °F 14.2 °F 86% 30.09 in 10.0 mi SSW 6.9 mph - N/A   Clear
11:55 PM 17.6 °F 7.3 °F 13.3 °F 83% 30.08 in 10.0 mi SSW 8.1 mph - N/A   Clear